Regional Weather Roundup
Issued by NWS

Home | Current Version | Previous Version | Graphics & Text | Print | Product List | Glossary On
Versions: 1 2 3 4 5 6 7 8 9 10 11 12 13 14 15 16 17 18 19 20 21 22 23 24 25 26 27
000
ASUS45 KCYS 171910
RWRWY

WYOMING REGIONAL WEATHER ROUNDUP
NATIONAL WEATHER SERVICE CHEYENNE WY
100 PM MDT TUE OCT 17 2017

NOTE:  "FAIR" INDICATES FEW OR NO CLOUDS BELOW 12,000 FEET
WITH NO SIGNIFICANT WEATHER AND/OR OBSTRUCTIONS TO VISIBILITY.

WYZ001-172000-
YELLOWSTONE NATIONAL PARK

CITY           SKY/WX    TMP DP  RH WIND       PRES   REMARKS
LK YELLOWSTONE NOT AVBL
W YELLOWSTONE  NOT AVBL

$$
WYZ002>013-054>058-071-098>099-172000-
NORTHERN WYOMING

CITY           SKY/WX    TMP DP  RH WIND       PRES   REMARKS
JACKSON        FAIR      51  26  37 S5        30.26F
CODY           FAIR      70  16  12 W9        30.05F
GREYBULL       FAIR      62  31  31 SE6       30.04F
WORLAND        FAIR      64  32  30 VRB3      30.05F
SHERIDAN       FAIR      76  18  11 SE5       29.96F
BUFFALO        FAIR      71  11  10 S8        30.03F
GILLETTE       FAIR      70  20  15 S10       30.00F
HULETT         FAIR      72  23  16 SW10      30.01F
NEWCASTLE      FAIR      61  21  21 SE6       30.06F

$$
WYZ014>020-022>026-101>103-172000-
CENTRAL WYOMING

CITY           SKY/WX    TMP DP  RH WIND       PRES   REMARKS
BIG PINEY      FAIR      56  14  19 S6        30.30F
PINEDALE       FAIR      57  14  18 SE6       30.31F
DUBOIS         FAIR      61  10  13 W23G32    30.18F
LANDER         FAIR      63  23  21 CALM      30.14
RIVERTON       FAIR      60  31  33 E7        30.15F
CASPER         FAIR      66  15  14 S21       30.13F
DOUGLAS        FAIR      72  11   9 W23       30.08F

$$
WYZ021-027>030-104>119-172000-
SOUTHERN WYOMING

CITY           SKY/WX    TMP DP  RH WIND       PRES   REMARKS
EVANSTON       FAIR      66   9  10 SW13G21   30.31F
KEMMERER       FAIR      63   7  11 W13       30.32F
FORT BRIDGER   FAIR      68   5   8 W13       30.33F
ROCK SPRINGS   FAIR      62  -1   8 W13       30.30F
DIXON          FAIR      64  10  12 SW13G18   30.33F
RAWLINS        FAIR      62   7  11 SW22G29   30.28F
SARATOGA       FAIR      63   9  12 W18G29    30.29F
LARAMIE        FAIR      65   6  10 W21G28    30.25F
CHEYENNE       FAIR      70   8   9 W30G39    30.18F
TORRINGTON     FAIR      76   7   7 W13G20    30.06F
PINE BLUFFS    FAIR      73  10   9 W16G26    30.15F

$$




USA.gov is the U.S. government's official web portal to all federal, state and local government web resources and services.